Theta_e
289 291 291 292 292 291 291 291 291 292 292 292 292 291 291 291 291 290 290 290 289 289 288 289 289 290 289 288 289 288 287 289 290 284 286 286 285 284 281 282 283 283 284
288 289 289 290 289 289 290 290 291 290 291 290 290 289 289 290 290 289 289 288 288 287 287 287 288 286 288 288 287 287 286 286 287 282 282 281 281 282 282 281 281 281 283
287 287 287 287 287 287 287 288 289 289 289 290 288 288 288 288 288 288 287 288 287 286 287 285 285 285 285 286 285 285 285 282 285 285 280 281 280 280 279 280 281 282 282
285 286 286 286 286 286 286 287 287 288 288 287 288 287 287 287 286 286 285 286 286 285 286 285 284 283 284 284 283 284 284 284 283 281 281 278 278 279 280 280 279 282 282
283 284 284 285 285 284 284 285 286 286 286 287 286 286 285 285 285 285 284 285 284 284 284 284 284 284 285 285 283 283 283 283 282 281 279 278 277 277 277 280 280 281 282
281 282 282 283 283 281 282 283 283 284 285 286 285 285 284 284 286 288 286 284 284 283 283 284 283 283 284 287 287 286 284 282 280 280 279 277 278 278 279 279 278 278 280
280 281 281 281 280 279 280 282 281 282 283 283 284 284 284 285 287 287 287 285 283 283 283 282 281 281 282 283 286 286 284 285 284 282 280 279 278 279 280 278 278 278 279
280 280 280 279 277 278 278 280 279 281 281 281 282 283 284 284 286 287 287 286 284 284 284 283 282 281 281 281 282 282 282 281 282 280 281 281 281 281 280 280 280 280 280
278 278 279 277 275 275 274 276 277 278 280 281 282 282 283 283 286 286 286 285 284 284 283 283 283 281 282 284 281 281 280 280 283 282 281 282 282 283 281 280 277 275 274
278 278 278 276 274 273 274 274 276 277 277 279 280 282 282 283 284 285 285 285 284 284 283 282 283 282 284 283 282 281 279 278 278 278 278 281 282 281 281 280 278 274 274
278 277 276 275 273 273 273 273 273 273 274 276 278 280 281 282 283 284 285 284 284 284 283 282 281 284 284 283 284 282 280 279 279 277 279 279 279 279 280 280 278 275 273
275 274 273 272 272 272 270 270 271 271 272 273 275 277 280 281 282 283 284 285 285 284 284 283 282 282 283 283 283 283 283 280 278 278 278 277 276 276 276 275 275 275 275
271 269 269 269 269 269 268 268 269 270 270 272 274 276 278 280 281 282 283 284 284 284 284 283 283 281 282 283 284 283 281 278 277 276 276 275 275 275 274 273 273 274 273
266 266 267 266 267 267 268 268 268 268 269 271 273 275 277 278 279 280 280 280 282 283 284 283 282 280 281 281 281 283 280 276 276 275 274 274 274 272 271 272 270 270 269
263 263 264 264 264 264 265 266 266 268 269 269 271 272 274 275 278 280 279 278 280 281 282 280 279 277 277 279 280 279 278 275 275 275 273 271 270 270 270 271 270 269 267
260 261 261 262 262 262 262 263 267 269 270 272 274 274 275 277 280 281 281 281 281 282 279 276 276 276 276 278 279 276 275 274 274 273 271 270 269 269 268 268 269 267 267
259 260 261 261 261 261 261 261 260 264 268 270 272 274 275 276 279 282 282 282 281 282 278 277 277 276 277 278 277 273 273 274 272 271 270 269 269 269 268 267 267 267 266
260 260 260 260 260 260 260 261 261 261 261 263 268 270 273 277 279 281 283 282 278 280 279 276 276 277 278 276 274 272 271 270 270 269 268 268 268 267 266 266 266 265 265
260 261 261 261 261 261 261 261 261 261 262 263 264 268 271 275 278 280 281 280 277 278 278 276 276 277 275 275 272 271 270 269 269 268 267 266 266 265 265 265 265 264 264
261 261 261 261 261 261 262 261 262 262 262 263 265 266 269 273 273 275 279 280 278 278 278 276 276 273 273 272 271 269 268 267 266 265 264 264 264 264 263 263 264 264 264
261 262 261 262 262 262 262 262 262 263 263 264 266 269 274 273 273 275 278 279 278 279 275 273 272 271 270 269 268 267 266 265 264 263 263 263 262 262 264 264 264 263 263
262 262 262 262 263 263 264 266 266 265 265 266 268 272 274 273 274 275 273 272 272 273 272 271 269 267 267 266 266 265 264 263 263 263 262 262 262 262 262 263 263 263 263
261 261 262 262 263 264 265 266 266 267 269 269 269 268 268 267 266 266 265 266 266 266 266 265 264 264 264 265 266 265 264 263 263 263 262 261 261 262 262 262 262 261 262
260 260 261 261 262 262 263 263 263 263 263 263 263 262 262 262 262 262 262 263 263 263 264 263 263 262 262 262 263 263 263 263 262 262 262 262 261 261 261 261 261 261 262
259 259 260 260 260 260 261 261 261 262 261 261 261 261 261 261 260 260 261 261 261 262 262 262 262 261 261 261 261 260 262 261 260 260 260 260 261 260 260 260 261 262 262
258 258 258 259 259 259 259 259 259 260 260 260 260 260 260 260 260 260 260 260 260 260 260 260 260 260 259 259 259 259 260 259 257 258 258 259 259 259 260 260 260 261 262
Wind_Speed
17 16 14 13 13 12 10 9 9 10 10 10 11 12 14 14 15 16 17 16 17 16 14 14 15 13 10 9 9 8 7 7 6 4 7 9 14 12 8 8 7 7 5
15 14 14 14 14 14 14 14 12 10 9 10 11 11 12 14 15 17 18 15 17 17 16 16 16 9 14 12 9 12 9 9 6 9 9 9 8 11 9 9 7 6 6
13 13 14 15 15 15 15 15 14 12 12 11 10 13 13 13 15 16 18 18 17 18 18 18 17 15 15 11 11 10 9 7 8 6 6 7 5 9 9 9 8 8 7
12 12 12 14 15 15 14 13 12 12 13 11 11 12 12 13 15 15 16 18 18 17 17 18 18 19 20 16 13 12 10 10 9 8 7 7 8 8 8 8 9 8 6
12 10 11 10 11 11 12 12 14 13 11 11 12 12 13 13 11 14 15 17 17 17 18 18 19 19 23 21 14 14 14 11 10 9 8 7 9 7 11 7 7 4 4
11 10 10 9 9 11 11 11 11 11 12 10 11 12 13 10 18 22 20 15 17 18 19 18 18 19 24 27 27 25 20 17 14 11 11 11 12 10 9 8 5 3 2
11 11 10 9 10 11 12 11 12 12 12 13 12 11 13 13 22 23 25 17 16 18 19 18 16 14 20 21 29 28 26 28 23 16 16 14 11 11 11 10 8 6 4
9 9 9 11 12 13 13 12 13 12 13 13 13 13 13 12 22 25 23 19 18 20 20 20 20 20 21 21 20 19 19 19 20 12 12 10 8 11 10 8 9 7 4
12 11 10 10 11 14 14 15 13 13 14 14 13 15 16 15 20 22 22 16 18 21 19 20 20 21 27 33 22 22 20 16 22 22 15 15 15 19 13 8 7 8 5
13 13 11 10 12 14 15 16 15 14 15 13 15 15 18 18 22 24 20 13 17 15 17 18 25 24 28 35 22 20 20 18 17 15 12 15 16 15 19 12 9 8 6
13 13 12 13 13 14 15 14 15 16 17 16 17 15 16 17 17 25 25 15 15 14 14 14 14 30 30 33 33 19 21 17 22 15 13 11 11 10 9 9 10 9 8
13 13 14 14 13 13 16 16 16 15 16 18 18 16 12 14 20 23 27 29 25 17 16 12 13 27 33 32 29 26 26 22 13 13 13 12 12 10 9 8 10 9 7
15 16 16 17 16 15 16 16 14 15 14 15 13 15 14 11 11 23 28 27 27 21 14 17 22 25 31 28 34 31 25 14 14 14 14 12 10 9 10 9 8 8 7
19 20 18 17 18 16 13 13 13 13 13 14 14 14 13 12 12 9 9 11 21 19 20 15 18 20 23 20 17 22 15 14 14 13 12 10 9 9 9 9 8 7 6
19 19 18 16 17 16 15 14 13 15 16 15 14 14 15 14 12 15 14 10 10 13 10 10 11 13 13 13 14 14 13 13 13 11 11 12 10 9 8 8 7 7 6
18 15 14 14 14 14 15 15 24 31 35 36 38 30 17 32 35 30 28 23 26 24 10 12 12 13 13 14 14 13 12 15 13 12 11 12 11 10 9 8 6 7 6
18 17 14 16 14 15 15 15 16 16 30 32 33 34 36 35 35 31 28 26 25 22 13 12 12 12 12 12 11 11 13 13 13 11 12 11 11 9 11 9 8 7 6
17 22 15 14 14 14 14 15 14 16 15 14 20 26 29 30 28 26 27 22 12 16 11 12 11 11 11 11 11 10 10 11 11 11 11 11 10 10 10 9 8 7 5
16 14 14 14 14 16 15 15 15 15 15 14 14 18 18 28 25 25 28 12 10 10 10 12 10 10 10 10 11 10 11 10 10 10 10 10 9 9 8 8 7 8 7
15 19 18 13 14 14 13 13 14 14 13 13 12 12 12 11 9 10 11 10 9 8 8 11 9 9 9 9 9 10 10 11 10 10 9 9 8 7 8 7 6 6 6
12 13 18 14 13 13 13 13 13 12 12 12 12 13 19 10 9 9 8 7 7 5 8 9 10 10 8 9 9 10 10 10 10 9 9 8 8 7 7 6 6 5 4
11 11 12 12 12 12 12 12 12 12 12 11 12 10 17 8 8 4 5 7 8 7 8 10 9 8 9 10 10 11 11 11 10 10 9 8 7 7 7 6 5 5 5
11 12 11 10 10 14 10 10 9 10 8 7 7 6 4 4 5 6 8 7 7 7 7 8 10 9 8 8 8 10 11 11 10 10 10 9 8 7 7 6 6 5 5
11 11 11 9 9 10 10 10 9 10 9 8 7 7 7 7 7 8 8 8 8 8 8 7 8 11 11 9 8 9 9 9 8 8 10 8 8 8 6 6 5 5 4
10 10 10 10 9 9 10 10 10 10 9 9 8 8 8 8 8 9 9 8 8 9 10 9 9 13 14 15 12 12 14 15 10 11 7 8 8 8 6 5 5 5 7
10 10 10 9 8 9 9 9 10 9 9 9 8 8 9 8 9 9 9 9 9 9 11 8 10 14 14 11 12 12 12 13 10 10 7 6 6 6 6 7 8 6 9
Wind_Direction
10 9 8 11 6 359 337 316 294 282 262 248 236 227 219 218 219 213 221 213 210 209 207 211 210 199 200 196 194 190 191 200 183 166 178 175 183 193 198 208 225 228 226
359 359 3 1 3 5 357 343 328 303 280 255 247 234 227 221 219 220 222 220 212 213 209 208 212 198 206 197 196 192 186 188 189 169 181 180 197 202 204 215 217 228 229
357 356 355 357 358 356 352 347 338 317 297 281 260 248 239 229 226 226 223 221 222 213 208 209 206 195 201 196 197 194 183 163 189 183 154 179 181 190 204 215 223 223 219
347 351 354 351 350 346 342 342 335 326 301 284 263 256 248 241 233 228 229 230 222 220 219 211 207 202 200 193 194 196 182 173 177 184 176 179 191 179 203 201 207 213 206
345 345 344 338 337 333 329 330 327 329 321 306 286 259 249 240 239 233 225 229 230 224 219 212 211 209 210 199 190 191 181 181 176 180 191 188 191 179 201 185 216 213 212
329 326 331 333 330 329 326 322 322 318 320 313 287 276 263 250 245 242 234 227 227 225 224 223 218 207 203 199 202 200 193 182 186 185 189 203 200 197 181 178 179 206 212
316 320 320 321 319 321 321 317 320 320 315 308 299 287 276 271 262 250 241 231 230 229 226 221 215 213 206 200 201 198 199 201 197 190 193 196 193 193 173 175 180 195 186
292 293 299 315 317 322 317 312 316 314 309 307 301 291 279 268 264 262 250 241 233 233 228 226 218 212 207 203 195 197 196 196 198 196 207 188 185 174 180 177 171 193 242
290 294 302 311 310 312 310 310 308 305 303 300 294 291 283 277 269 262 260 247 240 239 237 228 222 218 209 203 196 197 194 195 198 193 194 179 169 171 167 151 170 165 219
291 290 294 297 301 301 301 302 301 296 291 290 286 279 276 275 268 262 253 250 245 238 235 234 227 219 211 203 203 199 198 189 175 174 182 178 175 180 177 174 173 183 193
291 286 286 289 293 291 292 292 296 294 292 285 279 276 274 266 265 258 251 245 244 241 234 228 228 219 213 208 202 205 205 171 177 170 180 174 177 183 172 172 181 194 186
296 286 284 287 288 287 285 284 284 283 282 283 285 280 269 265 255 253 249 242 246 243 239 227 222 219 216 207 201 205 201 179 173 175 179 178 171 170 163 172 188 192 207
301 290 288 289 285 281 279 279 279 277 272 274 274 275 273 270 261 252 251 247 245 251 243 223 218 216 212 207 207 193 193 183 179 179 180 177 173 151 149 163 177 193 212
297 294 295 291 290 285 279 275 271 270 270 269 268 267 272 270 266 258 249 247 250 248 250 218 205 204 207 193 206 198 190 179 183 177 172 159 141 143 163 163 170 178 203
296 297 296 293 289 288 279 276 271 268 266 271 268 273 274 267 260 261 246 242 242 233 227 191 183 190 201 195 196 188 188 172 170 166 157 146 141 158 167 160 163 174 202
296 295 292 292 287 283 283 280 269 274 274 270 268 263 263 263 265 263 262 252 250 246 197 189 195 194 196 188 190 180 179 170 163 157 156 140 151 164 155 158 153 182 195
288 290 287 285 284 283 281 281 286 280 277 277 275 271 268 266 264 258 249 250 246 245 208 194 197 198 191 187 178 169 176 173 154 152 149 147 150 155 157 162 174 179 188
287 285 282 280 278 278 277 278 278 281 285 279 275 276 277 282 267 260 260 231 237 239 204 198 195 193 188 172 160 165 158 151 153 148 145 148 150 151 158 163 168 175 177
289 286 285 282 278 276 275 274 273 274 274 279 281 279 275 271 269 267 269 212 221 230 204 192 186 184 169 158 161 155 155 157 149 145 141 141 144 148 154 155 166 169 173
289 286 284 283 281 279 276 275 275 274 275 273 275 275 276 270 267 270 248 200 210 229 180 177 162 142 156 157 152 144 140 140 134 126 126 130 136 147 149 160 164 177 189
294 292 288 283 280 280 279 274 270 269 269 271 272 270 273 271 266 274 263 187 197 211 141 138 132 132 139 138 138 135 138 132 128 127 131 134 139 148 155 166 168 180 202
303 300 299 297 295 291 286 279 273 262 261 264 271 278 290 290 287 274 73 74 83 101 121 133 133 134 140 141 139 137 137 134 132 133 135 138 145 152 165 167 175 190 208
309 309 307 309 313 316 322 329 334 330 319 335 337 350 14 32 46 74 83 85 92 99 99 114 114 113 112 118 127 136 138 138 138 141 139 143 150 161 172 176 184 199 214
322 325 327 332 339 339 342 345 351 360 9 15 18 26 36 44 56 68 73 76 81 87 93 98 106 118 116 110 108 108 112 119 126 137 137 144 154 159 170 183 199 213 244
335 334 339 345 349 353 352 358 1 6 15 23 28 37 45 55 59 62 65 70 76 81 84 91 96 107 106 107 106 108 122 124 128 135 136 145 153 162 175 202 211 224 243
347 350 347 347 355 3 8 8 9 9 15 27 38 46 53 55 59 62 64 70 73 73 78 77 89 97 100 102 112 119 131 134 134 138 139 146 160 180 194 213 228 234 247